{"data":{"norad_id":65557,"epoch":"2026-09-20T10:21:40.004928Z","epoch_age_seconds":158432,"freshness":"FRESH","line1":"1 65557U 25201H   26263.43171302  .00000859  00000+0  12804-3 0  9997","line2":"2 65557  49.9778 316.2337 0007775 274.3447  85.6603 14.84389548 55963","mean_motion":14.84389548,"eccentricity":0.0007775,"inclination_deg":49.9778,"raan_deg":316.2337,"arg_perigee_deg":274.3447,"mean_anomaly_deg":85.6603,"bstar":0.00012804,"rev_number":5596,"period_min":97.009575548426,"perigee_km":610.06506565619,"apogee_km":620.94017526601,"semimajor_km":6993.6396204611,"source":"CELESTRAK","updated_at":"2026-09-21T09:00:15.426022Z"}}